Location: Bothwell
(42.3833°S, 147.0000°E)
Time: 21:49:36
(UTC+11:00)

CUTE-I - Pass Details

Date: 04 October 2022
Orbit: 810 x 823 km, 98.7° (Epoch: 29 November)

Event Time Altitude Azimuth Distance (km) Brightness Sun altitude
Rises 05:55:23 0° 36° (NE) 3,331 ? -9.1°
Reaches altitude 10° 05:57:49 10° 43° (NE) 2,409 ? -8.7°
Maximum altitude 06:02:48 42° 111° (ESE) 1,170 ? -7.8°
Drops below altitude 10° 06:07:51 10° 180° (S) 2,445 ? -6.9°
Sets 06:10:19 0° 186° (S) 3,387 ? -6.4°
